Wind_Speed
23 25 25 28 30 31 32 33 33 34 36 35 34 34 33 30 30 30 28 25 24 24 23 22 20 19 18 18 18 17 15 15 14 12 11 12 13 13 15 15 16 15 14 14 12 11 11 10 10 9 9 8 7 7 7 7 8 9 11 12 12 12 10 9 11 13 11 11 12 15 18 15 9 5 6 8 8 10 9 8 8 7 9 10 12
18 22 26 27 28 30 30 31 33 36 38 37 37 37 35 33 33 32 28 26 26 26 24 23 22 19 19 18 17 17 16 15 15 13 12 14 15 15 16 17 17 17 16 15 14 13 12 12 12 12 11 10 9 9 8 8 8 9 11 11 11 12 11 9 10 10 8 10 12 11 11 10 7 6 9 8 9 13 9 7 6 5 8 9 11
13 17 23 24 26 28 28 31 35 37 38 38 38 38 36 36 35 33 30 29 28 27 25 25 23 20 19 18 17 17 17 16 16 15 14 14 16 17 17 18 19 19 18 16 15 14 13 13 13 13 13 12 12 11 10 10 9 10 10 10 9 11 12 10 8 7 7 10 10 6 6 6 5 5 8 11 16 14 8 8 6 4 9 10 11
13 14 18 21 22 24 28 32 34 35 37 39 39 39 39 39 38 35 32 31 29 28 27 25 22 20 19 18 17 17 18 18 18 18 17 15 16 16 18 19 20 20 19 17 16 15 14 14 14 15 15 14 14 14 13 12 11 11 10 9 8 8 9 8 7 6 7 7 6 4 5 4 2 4 10 17 20 12 9 13 8 6 10 12 12
13 13 16 17 19 23 28 30 31 33 37 41 42 42 42 41 39 36 34 32 30 29 28 25 22 21 19 17 17 18 19 19 18 20 19 17 16 17 17 18 18 18 17 16 16 15 15 15 15 16 16 16 15 15 14 13 12 10 9 9 8 7 7 8 10 9 6 4 4 3 3 3 2 6 11 13 13 12 17 17 8 7 13 15 14
12 14 17 17 20 24 26 27 30 34 39 43 43 42 42 42 39 37 35 33 31 30 28 25 23 22 20 18 18 18 18 19 20 20 20 18 18 18 18 16 16 15 15 15 16 15 15 16 15 15 16 16 15 14 13 12 10 9 8 7 7 7 6 8 12 12 7 5 5 6 6 5 5 7 7 6 9 14 17 13 8 12 18 17 13
10 13 15 18 22 22 24 29 32 36 40 40 39 40 41 41 40 38 37 34 33 31 29 27 26 24 22 21 21 20 20 22 22 21 21 20 20 21 20 17 15 14 14 15 16 15 15 15 14 14 14 14 12 11 11 9 8 8 7 7 6 6 6 7 9 10 9 6 5 6 9 9 7 6 4 4 7 10 11 11 14 19 20 17 15
8 10 12 16 21 22 26 31 33 35 38 36 36 39 40 41 40 39 38 36 34 32 30 29 28 26 24 23 23 23 24 25 25 23 21 21 21 22 20 18 17 14 15 16 16 15 14 13 13 12 12 11 10 9 9 8 7 8 7 7 6 5 5 6 7 7 8 8 6 5 7 8 8 8 8 7 6 6 9 13 15 17 17 18 18
8 9 12 16 22 25 28 31 32 34 35 35 37 38 39 40 40 39 39 38 36 34 32 31 29 27 25 24 25 25 25 25 24 22 21 20 21 21 20 21 21 17 16 16 16 15 13 12 12 11 11 10 9 8 8 8 8 9 8 7 6 6 5 6 7 7 7 8 8 7 6 6 7 8 9 9 8 7 8 8 11 14 16 17 16
7 9 14 20 25 28 28 29 33 35 33 34 36 36 37 38 39 40 41 40 37 35 34 33 31 29 28 27 27 27 26 25 24 23 22 22 22 23 23 23 22 19 17 16 16 15 14 13 12 12 11 10 9 8 8 9 10 9 8 7 7 7 7 7 8 8 7 7 7 8 7 6 5 6 6 8 9 9 9 8 10 12 13 14 13
7 8 13 21 26 29 28 28 34 35 31 32 34 35 37 37 38 41 42 40 38 37 36 35 33 32 31 30 29 28 27 25 25 25 24 23 22 23 23 22 20 19 18 17 17 16 15 14 13 12 11 10 9 9 9 10 10 9 9 9 9 9 9 9 9 9 8 8 9 9 9 8 7 6 7 9 8 8 8 8 9 10 12 16 15
7 8 11 16 21 26 25 26 32 32 30 32 34 34 35 37 38 40 42 41 40 39 37 37 35 34 33 32 30 29 27 26 26 26 26 24 22 21 19 18 18 18 18 18 18 18 16 15 14 13 12 11 11 10 10 10 9 9 9 10 10 10 10 9 9 10 10 10 9 9 9 9 9 9 10 11 11 11 10 8 9 11 11 15 18
8 8 10 11 13 19 22 25 28 29 30 32 33 33 34 36 37 39 43 43 41 40 39 38 38 37 35 33 32 30 28 28 28 28 28 25 23 20 18 17 17 18 18 19 19 19 17 15 14 14 13 12 11 11 10 10 9 9 10 11 11 10 10 10 11 11 10 10 9 9 9 10 11 10 10 11 11 12 11 8 10 11 9 12 16
8 8 9 9 12 19 22 24 26 27 30 31 31 32 33 35 37 40 44 44 41 41 41 40 40 38 36 34 32 31 30 29 29 29 29 27 25 22 21 19 18 18 19 19 20 18 17 16 15 14 14 13 12 12 11 10 10 11 11 12 12 11 11 11 11 11 11 11 11 10 10 11 11 11 11 11 11 10 10 9 9 10 10 10 13
8 8 9 10 16 21 22 24 26 28 30 29 30 31 31 35 37 40 44 44 41 42 42 42 41 39 37 35 33 32 31 29 30 29 29 28 26 23 22 21 20 19 19 20 20 18 18 17 16 16 16 15 14 14 13 13 13 14 14 14 14 13 12 12 12 12 12 13 13 12 12 11 11 12 12 13 12 10 10 10 8 7 8 7 8
8 8 9 13 19 23 23 24 26 28 29 29 30 30 30 35 37 40 44 44 42 43 44 43 42 40 37 36 34 33 31 30 30 30 29 28 26 24 23 22 21 20 20 21 21 20 20 19 18 18 18 18 17 16 16 17 16 16 15 16 16 15 13 13 12 12 12 13 13 13 13 13 12 12 13 14 14 14 12 11 10 8 7 6 5
9 9 10 13 19 22 23 25 26 28 29 30 31 31 31 34 36 38 41 42 42 43 44 44 42 39 38 36 35 34 33 32 32 31 29 28 26 24 22 21 20 19 21 23 22 22 22 21 20 20 20 20 19 18 18 18 17 16 16 16 16 16 15 15 13 13 13 13 13 13 13 14 13 12 13 13 14 15 14 13 12 11 10 7 5
10 10 11 13 17 21 23 25 26 28 30 31 33 32 31 32 35 37 39 42 44 44 43 43 42 40 39 37 36 35 34 34 32 30 29 28 27 25 22 22 21 22 23 23 23 22 22 22 22 22 22 21 19 19 19 19 17 16 16 16 16 15 15 16 15 14 14 13 13 14 14 14 13 12 12 13 13 13 14 14 14 13 12 10 7
10 11 11 12 16 20 23 26 28 30 31 32 34 33 31 32 34 36 39 42 43 41 40 41 41 40 39 38 37 36 35 34 32 30 29 29 29 29 27 27 27 26 26 24 23 23 23 23 23 22 22 21 20 20 20 18 17 16 16 15 15 15 15 16 16 15 15 14 14 15 15 15 14 14 14 14 13 13 14 15 14 13 12 12 11
11 12 11 12 16 21 23 26 30 32 33 34 34 33 32 32 33 35 38 40 39 38 39 40 40 39 38 37 36 36 34 33 31 30 29 30 30 30 30 30 30 29 28 26 25 25 23 23 22 22 22 21 21 21 19 18 17 16 16 15 15 15 15 16 15 15 15 15 15 16 17 16 15 15 15 14 14 14 14 15 15 14 14 14 13
12 11 11 12 15 21 25 28 31 32 33 33 32 32 31 31 32 34 36 36 36 37 38 40 41 39 38 37 36 35 33 32 31 30 29 30 30 29 29 29 29 29 27 26 26 25 24 22 21 21 21 21 21 20 19 17 16 16 16 16 16 15 16 17 16 15 15 15 16 17 18 19 18 17 17 15 15 15 15 15 15 16 16 16 15
12 12 11 11 14 21 27 30 31 30 31 32 31 31 30 31 32 33 33 34 36 37 38 40 40 38 38 38 36 34 33 32 30 29 29 29 30 30 29 28 27 27 26 25 26 25 23 22 21 21 22 22 21 20 19 17 17 18 18 17 17 16 17 17 16 16 16 15 16 18 19 20 20 20 20 19 18 18 18 18 17 17 17 17 16
12 11 9 10 17 24 28 29 30 29 30 31 31 31 31 32 33 33 33 35 37 37 37 37 38 38 39 38 36 35 33 31 30 29 29 30 30 30 29 28 27 26 26 25 25 25 24 22 22 22 23 22 21 21 20 19 19 19 19 18 17 16 16 16 17 17 16 16 17 18 19 20 20 21 21 21 21 20 20 20 19 19 18 17 17
13 10 8 12 19 23 24 25 27 29 30 31 32 33 34 34 34 33 34 36 37 36 35 35 37 38 38 37 36 35 33 31 30 30 30 30 30 29 28 28 28 27 26 26 25 25 24 22 21 22 22 22 21 21 21 21 20 19 18 17 15 15 15 15 15 15 15 17 18 19 20 21 21 21 21 21 21 21 21 20 21 21 20 20 19
13 11 9 12 17 18 20 23 26 28 30 31 32 34 35 35 35 34 35 37 36 34 34 35 36 37 37 38 37 35 34 32 31 30 30 29 29 28 27 28 28 27 26 25 24 24 23 22 21 22 23 22 22 21 21 21 19 17 16 15 14 14 14 15 16 17 17 19 20 21 21 21 21 22 22 21 22 22 22 21 21 21 20 20 20
13 11 11 13 15 16 19 24 26 28 29 30 32 34 35 36 37 37 36 37 36 33 33 34 36 36 38 39 38 37 35 33 32 31 30 29 28 27 27 27 27 26 26 24 22 22 22 22 22 23 23 23 22 22 22 20 18 17 16 14 14 14 14 16 18 20 21 21 21 21 21 21 22 23 23 23 23 23 23 22 22 21 20 19 18
10 9 11 15 16 16 20 24 27 29 30 31 32 33 35 37 39 39 38 37 36 33 32 34 36 37 38 39 39 38 36 33 32 31 30 29 28 27 27 27 26 26 25 23 21 21 22 22 23 23 23 23 23 23 21 18 17 18 17 16 16 15 15 15 16 18 20 21 21 21 21 22 23 24 25 24 23 23 23 23 23 23 22 20 19
9 10 13 16 16 15 19 24 28 30 32 33 33 33 35 36 37 39 38 38 36 33 31 33 35 38 39 40 39 37 35 33 31 29 28 28 28 27 27 26 25 24 24 23 22 22 22 23 23 23 23 23 24 22 18 16 16 17 17 17 16 15 15 15 17 19 20 20 21 21 21 22 23 25 26 25 24 24 23 23 23 24 23 22 20
11 13 16 17 16 15 18 24 28 30 32 34 34 35 36 36 38 38 38 38 36 32 32 33 35 38 40 40 37 35 33 31 30 28 28 28 27 27 26 25 24 24 23 23 22 23 23 23 23 23 24 24 24 22 19 18 18 18 19 19 19 18 18 18 19 20 20 19 19 20 21 22 23 25 26 26 26 25 25 25 24 23 23 23 21
13 16 18 17 16 16 19 24 27 29 32 33 33 36 37 37 38 39 40 40 36 32 32 32 35 39 40 38 34 32 31 30 29 28 28 27 26 25 25 24 24 24 23 22 21 22 23 24 24 24 24 25 25 24 23 21 19 20 21 21 20 20 19 20 20 20 20 20 20 21 22 23 25 26 27 27 27 26 26 26 24 22 23 24 24
16 19 19 17 17 17 19 23 26 29 31 31 33 36 38 37 37 38 40 41 36 32 33 33 35 37 37 35 33 32 31 30 29 28 27 26 25 24 24 24 23 23 22 22 22 22 24 24 24 24 25 26 26 26 24 21 21 21 21 22 21 20 19 20 21 22 22 23 23 23 23 24 25 26 26 27 26 26 25 25 24 23 21 22 23
19 20 19 18 18 17 18 22 26 28 29 31 34 36 36 36 36 37 39 41 37 33 32 34 35 34 33 33 33 33 31 30 29 27 26 26 24 23 23 24 23 22 22 22 22 23 23 24 24 25 26 26 26 25 22 21 21 21 21 22 22 21 21 21 23 24 24 24 24 24 24 25 25 24 25 26 25 25 25 25 25 25 24 24 24
20 19 18 17 17 18 20 24 27 27 29 33 36 35 35 36 36 37 38 39 38 33 31 32 33 32 33 33 33 33 32 31 29 27 26 25 24 24 24 24 23 22 21 22 22 23 23 24 24 25 26 26 27 25 21 20 21 21 21 22 21 21 21 21 21 22 23 24 25 26 26 25 23 21 22 23 23 23 24 24 24 24 25 27 28
19 18 16 16 18 21 24 26 27 28 31 35 36 36 37 37 36 36 36 36 36 33 31 31 31 32 33 33 32 32 32 30 28 27 25 24 25 25 25 24 23 22 22 22 22 23 23 24 24 25 25 26 27 25 22 21 21 21 21 22 22 22 22 21 21 22 22 23 24 24 23 21 19 18 19 21 21 21 20 22 24 24 25 27 28
18 17 16 18 21 23 25 26 27 29 33 36 38 39 39 39 37 36 35 34 33 32 31 30 31 31 32 32 31 30 31 30 28 26 26 25 25 25 24 23 23 22 22 22 22 23 23 23 23 23 24 26 27 25 22 21 21 21 21 21 21 21 21 22 23 23 24 25 24 22 20 18 16 15 16 17 18 18 18 19 22 23 25 26 27
17 18 19 22 25 25 25 25 26 28 32 36 39 40 40 39 38 36 34 32 30 30 30 30 30 29 30 31 31 29 29 29 28 26 26 26 26 25 24 23 22 22 21 21 22 22 22 23 23 23 24 26 27 24 22 22 21 20 21 20 20 21 21 21 22 24 26 27 24 20 16 14 13 13 14 14 15 15 16 17 20 21 21 23 26
23 26 28 31 31 29 29 29 27 27 31 35 38 40 39 38 37 35 33 30 27 27 29 29 29 29 29 30 30 29 29 28 28 27 27 28 27 25 24 23 22 21 19 19 21 21 22 22 22 22 23 26 26 23 20 20 20 19 19 19 19 19 19 20 21 24 24 21 18 16 13 11 12 13 13 14 15 16 17 18 19 19 20 21 23
30 32 34 35 35 33 33 32 27 27 34 39 41 42 39 36 35 33 29 26 25 27 28 28 28 29 29 29 29 29 29 28 29 29 29 28 27 25 24 23 22 21 19 18 19 19 20 20 21 21 22 23 24 21 18 18 19 18 18 18 18 18 18 19 19 18 16 13 13 13 11 11 12 13 13 14 15 18 20 21 21 20 21 23 24
34 35 35 35 36 36 35 30 26 31 40 44 45 43 38 35 34 30 24 22 24 26 28 30 29 28 28 28 28 29 29 29 30 30 29 27 26 24 23 21 21 20 19 17 17 18 18 18 19 20 19 19 21 20 16 16 17 17 17 17 17 16 17 17 15 13 12 12 13 13 12 12 13 14 15 16 17 18 21 24 26 26 27 27 25
35 37 36 35 36 35 30 26 28 35 44 47 45 42 38 37 33 24 19 22 26 28 30 32 30 27 26 27 29 30 30 29 29 29 28 26 24 23 21 20 19 18 18 17 17 17 17 16 16 17 17 17 19 19 17 15 15 16 16 15 15 16 16 14 12 11 12 12 13 15 16 16 16 16 17 18 18 19 21 23 25 28 30 29 27
37 38 36 34 33 31 28 29 34 42 46 44 41 39 39 38 29 19 20 25 27 29 31 32 30 27 25 27 29 31 31 30 29 27 26 25 23 22 21 20 18 17 16 16 14 13 13 13 14 16 17 17 18 18 16 14 14 15 15 15 16 17 14 10 9 10 12 13 14 15 16 17 19 20 21 21 21 21 22 22 21 22 24 24 24
37 37 36 34 31 30 31 35 41 45 44 40 38 40 40 33 22 18 23 27 27 29 32 32 29 26 25 27 29 31 30 28 27 26 24 23 22 21 21 19 18 16 15 15 13 12 12 14 15 16 17 17 16 16 15 14 13 14 14 15 16 13 9 7 9 11 12 13 14 14 14 15 17 20 20 20 21 21 21 22 21 21 22 24 24
35 36 38 37 33 32 35 38 42 43 41 39 40 39 34 25 19 21 25 27 28 30 32 30 28 26 25 26 28 30 29 28 27 26 24 22 21 21 20 19 17 16 15 15 15 14 14 14 15 15 16 16 14 13 13 12 10 11 12 13 12 9 8 9 11 12 13 13 13 14 14 15 15 17 17 17 18 18 19 20 21 20 21 21 21
34 37 40 39 35 34 36 39 41 42 41 41 40 35 29 23 21 23 27 28 29 31 31 29 27 25 25 25 26 28 29 28 27 25 24 22 21 21 20 18 17 16 15 15 14 13 12 11 12 14 14 12 10 9 9 9 7 7 9 10 9 9 10 11 12 14 15 15 15 15 16 15 15 15 15 15 14 14 12 12 12 13 13 12 11
35 40 41 40 38 37 37 38 41 43 42 42 42 37 29 25 25 28 29 28 30 32 31 29 27 25 24 23 24 25 27 27 26 25 24 24 22 21 20 18 17 16 16 15 13 11 9 9 10 13 13 10 5 5 7 8 6 6 7 8 9 11 11 11 12 13 13 13 13 13 13 12 11 10 10 11 11 11 11 10 9 9 12 14 14
37 40 43 43 41 38 37 37 41 45 45 45 42 34 28 30 33 31 28 28 31 32 31 29 27 25 22 21 22 23 25 25 25 24 24 24 24 23 20 18 17 17 16 16 14 11 9 8 9 12 13 8 4 5 6 6 5 6 9 10 11 10 11 11 12 12 12 12 12 11 10 9 7 7 8 10 12 14 15 15 15 15 16 18 18
36 39 43 43 37 35 35 37 41 46 46 41 35 31 33 37 35 29 27 30 32 32 31 30 27 23 20 19 22 23 24 24 24 23 23 23 23 22 21 19 19 18 17 15 14 11 8 7 9 12 11 6 4 5 6 5 6 8 9 9 10 10 10 11 11 12 12 11 11 11 11 10 9 10 12 14 15 16 17 17 18 17 16 15 14
39 43 44 40 34 35 37 38 41 45 42 35 33 37 40 38 30 27 30 33 33 33 33 31 27 21 19 19 22 23 23 23 24 25 24 24 24 23 22 21 20 20 19 17 16 14 12 11 12 12 8 5 6 7 6 6 6 6 7 8 9 10 10 10 12 13 12 11 10 10 10 11 12 14 14 15 15 14 13 13 12 12 11 11 10
42 44 40 35 36 39 40 40 42 42 37 35 39 41 38 31 28 31 35 35 35 35 34 31 26 19 18 19 21 22 23 23 25 25 24 25 24 23 22 21 20 19 19 17 17 16 15 13 13 12 10 8 8 7 6 5 5 6 8 10 9 9 8 8 9 10 10 8 7 7 8 10 11 11 10 9 8 7 7 7 7 7 8 8 7
41 40 37 39 43 43 41 42 42 37 35 38 40 37 34 34 36 39 40 38 37 36 33 30 24 17 17 18 19 20 21 22 25 25 23 23 21 19 18 17 16 16 16 17 15 14 12 12 13 13 12 10 9 6 4 5 7 8 8 6 4 5 3 4 7 7 6 5 6 7 8 7 7 5 4 3 3 3 3 2 3 3 4 4 4
38 36 37 43 46 44 43 44 41 36 36 38 37 37 39 43 44 44 43 41 40 36 31 28 23 17 18 18 18 20 20 22 24 24 23 21 18 16 16 15 13 11 12 15 16 14 12 12 13 15 14 11 10 8 6 7 8 7 3 2 3 3 2 6 4 4 6 7 6 6 5 4 3 2 0 1 2 2 3 3 3 2 1 1 2
Wind_Direction
263 268 266 261 259 257 255 254 251 246 244 245 246 247 248 249 251 252 255 257 258 261 265 268 272 280 288 294 299 302 301 299 299 289 269 257 255 257 263 270 272 273 276 280 284 286 285 284 283 283 283 284 284 286 293 298 302 305 309 314 316 320 323 327 335 335 325 321 319 316 324 332 324 304 289 284 311 333 339 340 337 338 343 352 357
269 269 265 261 258 256 253 251 248 244 243 243 244 247 248 248 249 251 253 253 255 259 261 263 268 275 281 287 293 296 296 295 292 288 273 260 256 257 262 268 272 273 275 279 280 279 279 279 280 281 282 286 286 286 291 293 295 298 304 310 309 310 312 318 332 339 332 326 326 318 318 325 322 312 299 290 322 334 340 353 353 360 357 358 2
269 267 266 262 257 255 252 249 247 245 244 245 246 247 246 246 247 248 250 251 254 257 257 261 267 273 277 282 288 290 292 292 289 286 278 267 262 260 261 265 269 272 273 275 274 272 273 273 275 277 280 283 284 286 288 290 294 295 299 304 305 306 306 308 323 337 332 326 325 312 312 323 317 329 314 304 324 327 328 353 352 0 2 358 0
270 270 269 266 259 253 249 247 247 245 244 244 245 245 244 245 246 246 248 251 253 254 255 259 264 268 273 278 282 283 285 287 286 283 279 274 270 265 263 264 267 269 269 268 266 265 266 267 270 273 275 279 282 285 287 289 292 293 294 295 296 303 302 299 300 313 327 327 319 302 325 338 297 351 337 315 321 319 312 334 325 313 346 351 356
266 270 271 269 261 254 251 249 248 245 244 246 245 244 244 245 245 246 248 250 251 251 252 254 256 260 265 271 274 276 278 279 279 279 281 278 271 267 267 264 262 264 263 259 258 260 262 265 269 271 273 276 279 282 284 285 287 286 285 283 286 291 291 292 291 297 314 304 288 279 324 346 273 340 341 314 316 314 309 319 306 300 334 338 346
256 261 268 270 265 260 257 252 247 244 247 249 247 245 245 246 245 246 247 248 248 249 248 248 249 253 257 258 261 265 268 270 272 277 281 278 272 272 273 267 260 258 255 251 253 258 263 265 268 270 272 274 277 278 278 280 279 274 271 273 279 279 278 287 290 296 301 277 259 247 266 296 302 324 328 291 305 311 308 310 287 300 323 327 334
255 257 263 265 264 261 257 254 247 246 252 252 248 246 245 245 244 244 245 246 246 246 245 243 244 249 253 254 257 259 260 266 274 277 279 278 276 277 277 271 266 258 251 249 252 258 263 265 265 266 269 272 273 272 271 270 266 263 267 270 273 272 272 277 286 296 300 289 271 254 266 285 291 290 276 272 306 307 304 305 295 302 316 317 316
264 265 264 262 262 258 256 257 253 252 256 253 247 247 246 244 244 243 244 244 244 243 242 240 242 246 250 252 254 256 259 266 274 277 276 276 276 276 274 273 273 262 250 249 252 257 260 261 262 262 265 267 265 264 264 258 257 265 270 270 268 264 265 269 275 286 290 293 297 282 273 280 278 273 274 278 285 288 296 301 300 305 312 309 307
263 267 272 271 270 266 264 265 265 261 258 253 250 249 247 245 243 242 242 242 241 240 240 239 241 244 247 248 249 253 258 263 269 271 271 270 272 272 271 274 274 264 251 249 250 253 253 253 257 259 259 260 260 259 258 254 260 269 269 265 262 259 259 265 269 270 272 282 296 298 288 283 277 276 280 275 263 267 284 293 303 313 313 307 307
271 266 271 275 277 278 277 276 273 268 262 258 254 250 247 244 241 239 240 240 238 238 238 238 239 240 242 243 245 249 253 258 262 264 266 266 267 267 269 272 271 263 255 251 249 249 249 249 252 253 254 255 255 252 252 258 267 270 266 262 259 260 263 265 266 264 260 266 280 290 292 290 285 280 276 269 262 264 272 280 295 306 308 304 306
288 283 280 282 286 287 285 280 277 274 267 261 256 251 247 243 240 239 240 239 236 236 236 237 238 238 240 242 243 247 250 253 256 258 261 262 262 264 267 268 264 260 256 251 248 248 246 247 249 248 248 248 247 248 253 263 269 269 267 265 260 261 265 265 262 258 258 262 264 268 276 279 280 280 276 272 269 268 272 279 284 286 291 295 301
294 294 290 291 294 294 291 284 282 280 272 264 258 252 247 243 240 238 239 237 235 235 234 235 236 236 239 240 242 246 248 249 251 254 258 259 259 260 260 260 257 254 251 247 246 246 244 246 247 242 241 243 244 248 256 261 266 267 268 267 264 263 263 261 259 257 257 260 257 255 262 269 272 276 278 274 269 268 271 275 280 284 287 292 299
298 294 292 293 292 294 293 289 288 285 277 270 262 255 249 245 240 238 240 238 235 234 234 234 235 236 238 239 241 244 246 248 250 252 255 256 255 254 251 251 251 249 247 245 244 243 242 244 245 241 239 240 242 249 254 256 259 264 268 268 265 263 261 259 258 257 255 254 254 254 256 262 266 269 274 274 270 269 270 273 279 283 282 287 297
293 289 289 290 289 292 294 293 292 289 285 279 270 261 253 248 243 240 242 241 236 235 235 234 236 237 239 239 240 242 243 246 248 251 254 254 253 251 249 248 247 247 246 245 244 242 242 245 244 241 239 240 245 249 249 248 254 264 268 267 265 264 261 259 258 258 256 254 255 256 255 256 258 260 266 270 271 270 270 274 281 283 280 283 292
291 288 288 289 294 297 298 297 296 294 292 287 278 268 257 251 247 243 244 243 238 237 235 235 237 238 238 239 239 240 242 244 247 250 252 253 252 249 248 248 246 246 246 246 245 243 245 248 245 241 243 246 251 252 249 250 259 266 267 266 265 264 261 259 258 257 258 256 255 255 254 253 252 255 260 261 263 268 274 280 284 289 289 284 288
299 299 299 299 302 304 303 302 301 300 298 292 285 275 263 258 253 248 248 246 241 239 237 236 238 238 237 238 238 238 239 241 243 246 249 251 251 248 247 248 246 244 246 246 246 247 251 251 246 245 248 252 253 254 254 257 265 268 267 266 264 262 259 258 257 257 257 257 256 254 253 252 251 252 257 260 264 269 275 279 278 282 287 287 286
309 305 304 304 306 307 307 307 306 304 302 298 293 285 273 265 259 253 252 248 244 242 239 238 238 237 236 236 236 236 236 238 241 244 247 249 249 246 245 245 242 241 245 248 249 252 253 249 248 251 252 253 254 254 255 261 267 267 264 264 263 261 259 257 255 254 255 256 256 254 253 253 253 252 254 258 264 267 267 268 268 268 271 279 288
309 305 306 306 308 310 311 313 312 311 308 305 303 296 284 274 266 259 255 252 249 244 241 239 237 235 235 234 234 235 235 238 241 243 245 246 246 244 242 241 240 241 247 251 253 252 250 249 253 257 256 255 253 252 256 263 267 264 261 261 260 259 257 256 255 253 253 254 254 255 254 253 252 249 250 253 257 262 263 261 262 263 264 269 278
314 316 316 313 315 316 318 320 321 321 318 314 311 305 293 283 274 265 261 259 255 249 243 240 237 235 235 234 234 234 235 238 239 241 243 244 245 244 244 244 245 246 249 252 252 250 249 252 256 258 256 254 252 252 258 264 263 260 258 257 255 253 252 254 254 251 251 251 251 253 254 254 254 253 252 254 254 255 259 262 263 264 263 267 274
318 318 317 316 318 320 324 326 325 324 322 318 315 309 300 291 281 272 267 263 258 251 245 241 238 235 232 232 232 233 234 236 237 239 241 243 246 246 246 247 248 249 250 251 251 249 251 255 257 256 255 252 251 254 260 263 259 255 253 252 252 249 247 250 250 248 248 249 251 253 254 255 255 255 253 253 253 254 257 260 263 265 266 268 274
317 316 317 317 320 325 330 330 328 326 323 320 317 311 305 298 289 280 273 266 260 254 247 241 238 235 231 230 230 231 232 233 235 237 240 243 245 245 246 248 249 250 250 249 248 249 252 255 256 255 253 249 249 255 260 259 254 253 253 252 251 247 245 247 247 246 245 245 248 252 256 258 257 257 256 254 254 255 256 256 259 264 267 267 269
315 318 319 319 326 332 334 332 330 328 326 324 321 316 311 305 299 291 280 270 265 258 250 243 239 235 232 230 229 230 230 231 233 236 239 241 242 243 245 247 247 248 247 246 247 249 253 254 254 254 250 247 250 257 259 255 252 255 256 253 249 244 243 244 244 244 244 245 249 253 256 259 260 259 258 257 256 256 257 258 259 260 262 264 265
316 318 317 324 334 336 334 331 330 329 329 330 329 326 320 314 308 299 288 280 273 264 255 247 239 234 233 231 228 228 228 229 232 235 237 239 241 243 245 245 244 245 246 247 248 250 252 254 253 250 247 248 254 258 257 255 256 258 257 253 247 241 240 241 242 243 244 246 249 252 255 258 259 259 258 257 257 256 257 258 257 256 257 259 262
318 318 319 330 337 336 332 329 330 331 332 333 333 332 328 322 315 305 296 289 281 270 258 249 240 236 232 229 227 226 226 227 230 233 236 237 240 243 244 244 244 245 246 247 249 251 253 251 247 244 245 250 255 256 257 258 259 258 255 250 244 240 239 240 241 242 244 248 250 251 255 258 258 257 256 255 254 254 253 252 252 253 253 257 261
321 323 329 334 336 334 331 330 331 332 333 333 333 332 330 326 322 314 305 297 288 274 260 250 241 235 230 227 225 224 224 224 227 232 235 236 239 241 242 242 243 244 245 247 248 250 250 246 241 241 246 252 255 256 257 260 259 254 249 247 244 242 242 242 244 247 247 249 251 251 255 259 257 254 252 252 251 250 248 246 246 249 250 253 258
321 327 331 333 334 333 331 333 333 332 332 333 333 332 331 329 326 321 314 305 294 279 263 250 241 234 230 226 224 223 222 223 226 230 233 235 237 239 240 241 243 244 245 245 244 244 246 243 239 242 249 253 255 257 259 260 255 248 245 246 246 245 245 245 247 250 251 250 250 252 255 257 255 252 251 253 252 249 247 244 242 244 245 248 251
317 325 329 332 334 332 331 333 333 332 332 331 332 332 331 330 327 324 320 312 300 284 265 251 240 234 230 226 224 223 222 222 225 229 233 234 235 238 239 240 242 244 244 242 238 238 243 242 240 244 250 252 255 258 259 257 250 245 243 244 246 246 245 245 244 247 250 250 250 251 253 254 253 252 252 253 252 249 246 244 242 243 242 242 245
324 327 331 334 332 328 330 332 332 332 332 331 331 331 330 328 325 324 322 317 306 288 268 253 241 234 231 228 226 223 222 223 225 228 231 234 235 236 237 239 242 243 241 240 238 239 242 241 241 247 250 253 256 258 255 247 241 239 238 240 244 243 242 244 247 250 253 254 253 254 254 255 256 256 255 254 254 251 246 242 243 243 240 239 239
332 331 334 334 330 327 329 330 331 333 332 331 331 329 329 327 325 325 324 321 312 292 271 255 243 236 233 230 227 223 222 223 224 226 230 232 234 235 236 238 240 240 239 240 242 242 241 241 244 248 251 254 257 258 251 245 240 238 240 243 245 245 245 246 250 255 258 259 258 259 260 262 263 262 262 261 259 256 249 244 244 239 234 234 235
329 332 333 331 326 327 329 330 332 333 331 330 329 328 327 324 324 325 325 323 316 295 273 257 245 239 235 231 227 223 222 222 222 225 228 230 232 233 233 235 236 237 239 241 242 241 241 243 245 247 251 256 258 257 252 245 241 241 247 251 249 249 250 251 252 257 260 261 260 260 263 267 268 267 265 263 260 255 250 248 248 243 235 231 229
329 330 330 326 325 327 329 331 331 329 328 328 327 326 323 321 322 323 324 324 317 297 276 260 249 243 237 230 225 222 221 221 222 223 226 228 229 230 230 232 233 235 238 240 241 241 241 243 245 249 254 258 258 257 251 245 242 241 245 251 253 256 258 257 259 260 261 263 264 264 267 269 267 266 263 258 253 247 242 241 243 245 242 237 229
328 328 326 324 326 327 328 327 326 325 326 326 325 324 321 319 319 319 321 324 318 300 281 266 256 247 237 229 224 221 220 220 220 222 224 226 226 227 228 229 230 233 237 239 240 241 242 245 248 253 257 257 257 256 250 244 244 242 241 244 249 254 257 258 260 261 262 264 264 267 272 270 266 266 264 258 251 245 239 236 236 237 238 239 237
326 322 320 321 321 321 321 321 320 321 323 323 322 321 318 316 315 316 318 321 318 305 287 272 262 249 238 231 225 221 220 220 220 221 223 224 225 226 227 227 229 232 235 238 240 242 244 248 251 254 257 257 257 256 250 245 246 245 243 243 244 246 247 249 253 256 260 263 262 267 273 270 265 265 263 257 253 249 243 238 236 236 235 234 235
319 316 316 316 313 313 314 316 317 319 321 321 321 320 317 315 312 312 315 317 317 308 293 278 267 253 241 232 226 222 221 221 221 221 222 223 224 225 226 228 228 229 232 236 239 243 246 250 253 255 257 257 257 257 253 249 248 248 247 246 244 244 245 245 247 250 254 257 260 265 268 265 262 262 259 255 253 252 249 243 239 237 237 236 234
314 313 312 311 311 309 310 313 317 319 321 322 322 321 318 314 310 310 311 313 314 308 297 284 271 259 245 233 227 224 222 222 221 221 221 222 223 224 225 226 226 227 231 236 241 245 249 251 254 255 255 256 259 259 256 252 251 249 248 246 244 243 243 244 246 247 250 254 256 257 256 254 256 261 260 257 253 249 249 248 244 241 240 239 239
309 308 308 309 308 304 306 311 314 318 322 322 321 319 314 310 307 305 306 310 311 306 299 289 275 263 248 235 228 224 222 221 220 219 220 222 223 224 225 225 227 230 233 238 243 247 250 253 255 254 254 258 261 261 257 252 250 248 246 245 243 242 242 242 244 247 251 255 252 246 245 247 250 254 254 254 253 248 244 246 247 248 248 247 245
309 309 310 311 309 307 307 308 311 317 320 320 319 316 310 304 301 300 302 308 309 303 300 293 280 268 254 239 230 225 223 221 219 218 220 222 224 225 226 226 228 229 231 235 241 246 251 255 256 256 257 261 265 263 256 252 249 245 243 243 242 242 241 242 245 248 251 251 239 229 233 240 245 254 256 248 239 235 238 242 244 247 250 252 255
314 313 313 312 312 310 307 306 311 318 321 322 321 315 308 300 295 293 298 304 303 301 301 297 286 273 259 244 232 226 224 221 218 219 221 223 223 225 227 228 228 228 229 234 241 247 252 254 257 259 260 263 266 266 257 250 248 243 239 241 242 240 240 241 242 243 244 239 226 224 231 237 241 251 256 247 233 228 232 237 241 244 243 246 254
313 312 310 310 311 309 306 309 317 320 323 325 321 314 307 299 291 290 294 299 299 301 305 301 292 280 263 245 233 227 224 222 221 221 222 223 223 224 227 228 228 228 231 236 242 247 251 257 262 265 263 260 263 266 259 248 245 242 239 239 240 239 240 240 236 233 235 235 231 233 237 240 245 248 249 246 240 234 233 235 238 239 236 240 251
312 311 310 311 312 311 313 318 320 321 323 324 319 313 307 299 293 292 293 296 300 306 309 306 297 284 263 244 234 227 223 222 222 222 222 222 222 223 224 224 223 226 230 237 243 248 252 258 263 265 265 261 260 263 259 249 247 248 242 240 243 241 236 233 230 231 236 240 244 249 251 251 252 253 251 249 246 243 241 240 240 235 234 243 258
316 316 318 320 320 321 323 322 320 321 322 320 316 313 306 300 297 294 292 298 305 310 311 308 299 283 263 246 236 228 222 221 222 221 220 220 220 220 221 220 219 222 229 236 242 244 247 255 261 264 268 268 264 263 259 251 250 251 245 242 242 237 229 229 238 244 248 253 259 262 261 258 256 254 253 252 252 251 250 249 248 243 243 254 263
323 326 331 331 329 327 323 319 321 322 321 319 317 313 308 305 298 290 296 306 313 314 312 308 298 281 263 249 238 228 221 219 219 218 216 216 217 219 219 218 218 222 229 235 237 237 244 257 266 269 270 269 264 262 260 254 245 241 242 245 243 232 226 241 251 252 256 260 263 266 266 265 261 255 250 249 251 253 253 255 258 259 259 262 261
332 334 335 333 328 324 322 321 323 324 323 322 319 315 312 308 295 294 307 316 317 317 314 308 296 279 262 249 238 226 218 215 215 215 213 213 214 214 215 217 219 221 226 232 236 243 251 261 268 271 271 269 264 260 256 248 231 222 235 250 249 239 243 253 252 252 256 257 258 259 258 257 256 254 253 254 256 257 258 259 260 262 265 263 258
334 333 333 332 328 324 323 323 325 326 326 325 322 317 313 308 305 313 321 322 321 321 317 307 295 279 261 248 235 224 216 213 213 211 210 210 210 210 212 216 217 218 222 228 235 241 245 253 264 269 271 269 264 251 233 217 210 222 243 257 262 262 264 262 257 255 254 253 252 253 253 253 255 256 257 257 256 256 259 262 262 267 275 276 269
333 334 334 333 329 326 325 324 326 328 329 327 324 320 317 319 324 327 327 327 328 326 318 307 295 280 262 246 232 220 214 213 211 209 207 207 206 207 209 211 214 216 217 221 227 231 233 240 252 264 270 268 249 214 195 193 206 233 252 263 269 268 264 260 260 261 260 258 257 258 257 252 249 249 251 253 256 261 269 279 281 277 276 278 279
334 335 335 333 330 329 328 327 328 330 330 327 325 329 335 335 331 330 332 336 334 329 320 310 297 281 263 243 227 216 212 211 210 209 210 209 208 208 207 207 211 213 213 218 222 222 226 235 245 259 267 260 213 193 198 204 222 248 260 261 256 253 255 258 261 265 268 269 265 263 259 250 248 260 271 275 279 279 280 282 282 280 279 278 278
334 335 335 334 331 330 331 331 329 328 327 326 331 341 342 334 329 333 341 342 338 333 327 315 300 281 260 239 224 214 209 207 206 206 208 210 211 211 209 208 210 210 209 213 217 214 214 224 239 252 258 249 217 217 226 243 259 263 261 249 238 243 253 253 252 260 269 269 262 258 260 264 272 283 289 290 289 285 282 279 276 276 277 276 272
336 337 334 332 331 332 331 329 326 324 326 331 339 340 334 330 335 345 347 342 339 337 330 318 303 281 255 237 224 213 206 202 201 202 204 207 209 211 212 213 215 214 209 206 208 212 215 220 231 241 241 231 231 235 243 263 265 245 227 227 240 257 265 257 255 261 259 247 239 244 255 266 274 279 282 284 282 278 274 271 269 268 266 264 261
337 333 331 333 335 332 328 325 322 323 329 337 338 335 335 342 350 350 346 341 338 335 329 319 305 277 247 236 225 213 205 201 200 201 206 212 215 216 218 221 224 224 221 217 215 217 219 222 230 233 226 222 232 245 261 264 246 232 237 244 256 272 274 258 245 236 224 218 233 259 272 277 280 280 279 278 277 274 267 261 258 259 259 256 252
332 330 334 339 336 331 328 325 324 327 335 341 341 343 348 352 349 344 341 338 334 331 327 319 304 271 241 234 222 207 203 201 199 200 205 214 222 226 228 234 236 232 229 228 228 228 226 225 229 232 231 232 234 242 267 265 252 257 263 267 279 286 262 167 165 183 209 253 278 280 280 281 279 274 274 286 300 308 302 278 261 255 248 247 248
330 334 340 339 335 333 330 327 327 336 345 348 348 348 346 343 340 339 337 334 332 329 323 317 305 277 249 236 217 204 201 200 199 202 204 209 217 222 225 232 238 235 228 225 227 232 231 226 235 246 252 252 244 240 258 271 265 266 287 339 307 290 132 133 165 256 292 296 279 259 249 250 246 233 246 353 350 2 8 2 352 344 316 276 275
Height
838 840 840 839 839 839 840 840 840 840 840 840 839 838 838 839 839 839 839 841 840 840 840 840 839 838 836 836 835 834 833 832 832 831 830 830 829 829 828 827 827 827 826 825 825 824 824 823 824 824 824 823 822 821 820 819 818 818 817 816 816 816 816 816 816 815 814 812 810 807 803 799 797 796 795 795 794 794 793 792 791 791 791 792 792
838 837 835 835 836 835 837 837 836 836 835 835 835 834 834 835 834 834 836 837 836 836 837 836 836 835 833 833 832 831 831 830 830 829 828 828 827 827 826 826 825 825 824 824 823 822 822 822 822 822 822 822 821 820 819 818 818 817 817 816 816 816 816 816 815 815 814 812 809 804 800 796 795 794 793 793 793 793 792 792 791 791 791 791 792
836 833 831 831 832 832 833 832 831 831 831 831 830 830 831 830 830 830 832 832 832 832 833 832 832 831 830 830 830 829 828 828 827 827 826 825 825 824 824 824 823 823 823 822 821 820 820 820 820 820 820 820 819 818 818 817 817 816 816 816 816 815 815 815 815 815 814 813 810 805 799 795 793 792 791 791 791 791 791 791 791 790 791 791 791
833 830 828 828 828 829 828 826 827 827 827 827 825 825 825 824 824 826 827 827 828 828 828 829 829 828 827 827 827 827 826 826 825 824 824 823 822 822 821 821 821 821 820 819 819 818 818 818 818 818 818 818 818 817 816 816 815 815 815 815 815 815 814 814 814 814 814 813 810 806 800 798 796 793 791 789 789 790 790 790 790 790 790 790 790
832 828 824 824 824 824 823 822 823 823 821 820 819 819 819 819 820 822 823 823 824 825 825 826 826 825 824 824 824 824 823 823 823 822 821 821 820 820 819 819 818 818 818 817 816 816 815 815 816 816 815 815 815 815 814 814 814 813 813 813 813 814 813 812 812 812 812 811 810 807 804 803 799 796 794 790 788 789 789 789 789 789 789 789 789
830 826 822 822 821 819 819 818 818 817 814 813 814 815 815 815 817 818 818 819 819 821 821 822 822 821 821 820 821 821 820 820 819 819 818 818 817 817 817 816 815 815 814 814 814 813 813 813 813 813 813 813 813 812 812 812 811 811 811 811 811 812 811 811 809 808 809 808 807 806 804 803 800 799 800 795 789 788 788 788 788 788 787 787 787
825 824 821 819 817 816 815 813 812 810 807 808 810 811 811 811 812 813 813 814 815 816 817 818 817 817 816 816 816 817 817 816 816 816 816 815 814 814 814 813 812 812 811 811 811 811 811 810 810 810 810 810 810 810 810 809 809 809 809 809 809 810 809 809 807 806 805 803 804 803 802 802 802 802 803 800 795 790 787 787 787 786 787 786 785
823 821 818 816 813 812 810 807 806 805 803 805 806 805 805 806 807 808 808 809 810 811 813 813 812 812 812 812 812 812 812 812 812 813 812 812 811 811 811 810 809 809 808 808 808 808 808 808 808 808 808 808 807 808 808 807 807 807 807 807 807 807 807 807 806 804 803 801 801 801 800 801 801 801 801 801 800 794 789 788 786 785 785 784 784
822 820 816 813 811 809 807 805 803 802 801 801 800 799 800 801 802 803 803 803 805 806 807 807 807 808 807 807 807 807 808 808 809 809 809 809 808 808 807 807 806 806 805 805 805 805 806 806 805 805 805 805 805 805 805 805 805 805 805 805 805 805 805 805 804 803 802 800 799 799 799 799 799 800 800 800 800 797 792 789 786 784 783 782 782
819 818 816 812 810 807 806 805 801 799 798 797 797 796 796 796 797 797 796 797 799 801 801 802 802 802 802 802 802 803 803 804 805 805 806 806 805 805 804 804 803 803 802 802 802 803 803 803 803 803 803 803 803 803 803 803 803 803 803 803 803 803 803 802 802 801 801 800 799 797 797 797 797 798 798 798 798 797 793 791 789 787 784 781 780
816 816 814 810 808 805 804 802 798 796 796 795 793 793 792 792 792 791 791 792 793 794 795 795 796 796 795 796 797 798 799 800 800 800 801 802 802 802 801 801 801 800 800 799 799 800 800 800 800 800 800 800 800 800 800 800 801 801 800 800 800 800 800 800 800 800 799 798 798 797 795 795 795 795 796 796 796 796 794 792 790 789 786 781 779
816 815 811 809 806 802 801 799 795 794 794 792 790 790 789 788 788 787 786 786 787 788 789 789 789 789 789 790 791 792 794 795 795 796 797 798 798 798 799 798 798 798 797 797 796 797 798 798 797 797 797 797 798 797 798 798 798 798 798 798 797 797 797 797 797 797 797 797 796 795 794 794 793 794 794 794 794 794 794 792 790 789 787 783 779
816 814 810 808 804 800 799 795 793 792 790 789 788 787 787 785 785 784 781 781 782 783 783 783 783 783 784 785 786 788 789 790 790 791 792 793 794 795 795 795 795 794 794 794 794 794 795 795 794 794 794 794 795 795 795 795 795 796 796 795 795 795 794 794 794 795 795 795 794 794 793 792 792 792 792 792 792 792 792 790 789 789 787 784 781
814 812 808 805 802 798 796 793 791 790 787 786 785 784 784 783 782 780 777 777 778 778 778 778 777 778 779 780 782 783 784 785 786 787 788 789 790 791 791 792 791 791 791 791 791 792 792 792 792 791 791 791 791 792 792 792 793 793 793 793 793 792 792 792 792 792 792 792 792 792 792 791 790 790 790 791 791 791 790 789 788 787 786 785 782
811 809 806 802 799 796 794 792 789 787 785 783 782 781 780 779 777 776 773 773 774 773 772 772 772 773 774 775 777 779 780 781 782 784 785 786 787 787 787 787 788 787 788 788 789 789 789 789 789 789 788 788 789 789 789 789 789 790 790 790 790 790 790 789 789 789 789 790 790 790 790 789 789 788 789 789 789 789 789 788 788 786 784 784 783
808 805 803 799 797 794 792 790 787 785 783 780 779 777 776 774 773 772 769 769 770 768 767 767 767 769 770 771 772 774 775 777 778 780 781 782 783 783 783 783 784 784 784 785 786 786 787 787 787 787 786 786 786 786 786 786 786 787 787 787 787 787 787 787 786 786 786 787 787 787 788 787 787 787 787 786 787 787 787 787 787 787 785 784 782
805 803 802 797 795 793 790 788 785 783 780 778 776 774 772 771 769 768 766 766 765 763 762 762 763 765 765 766 768 769 771 772 773 775 776 778 779 780 780 780 780 780 781 782 782 783 784 784 784 784 784 783 783 783 783 784 784 783 783 784 784 784 784 784 784 784 784 784 784 785 785 785 785 785 785 784 784 784 784 785 786 786 786 784 782
804 802 800 796 794 791 788 786 784 781 779 775 773 771 769 767 765 764 762 761 759 758 759 759 760 760 760 762 763 764 766 767 769 771 772 774 775 776 776 776 776 777 777 778 779 780 781 781 781 781 781 781 780 780 780 781 781 780 780 780 781 781 782 781 781 781 781 781 781 782 782 783 783 783 783 783 782 782 782 783 783 784 784 783 782
802 800 797 794 793 789 787 785 781 780 777 774 771 768 767 764 762 761 758 756 756 756 757 756 756 756 755 757 758 760 762 763 765 767 768 769 770 771 772 772 772 773 774 775 776 776 777 778 778 778 778 778 778 778 778 778 778 778 777 777 778 779 779 778 778 778 778 779 779 779 779 780 780 780 780 780 781 781 780 780 781 781 782 782 782
801 798 795 793 791 788 787 784 780 778 775 772 770 766 764 762 759 757 755 753 754 754 754 752 752 752 751 752 753 755 757 759 761 763 764 765 766 767 768 769 769 769 770 772 772 773 774 774 775 775 775 775 775 775 775 775 775 775 775 774 775 776 776 775 775 775 775 776 775 776 776 777 778 778 778 778 778 779 779 778 778 778 779 779 780
800 797 794 791 789 787 785 782 780 776 773 770 768 764 762 759 757 754 752 751 750 749 749 748 748 748 748 748 748 750 753 755 757 758 759 761 762 763 764 765 766 765 766 767 768 769 770 771 771 771 772 772 772 772 772 772 772 772 772 772 772 772 773 773 773 772 772 773 773 773 773 774 775 775 775 775 775 776 777 777 776 776 776 776 777
798 796 792 790 788 785 783 780 778 775 772 769 766 763 760 757 754 752 750 748 746 745 744 744 744 744 744 744 744 746 748 750 752 754 755 757 758 760 761 761 762 762 762 763 764 766 766 767 768 768 768 769 769 769 769 769 769 769 769 769 768 769 769 770 770 769 769 770 770 770 770 771 772 772 772 772 773 773 774 774 774 774 773 773 774
797 794 792 790 787 785 782 779 777 773 770 767 764 761 758 755 752 749 747 745 742 741 740 740 740 740 740 740 741 742 743 745 748 749 750 752 754 756 757 757 758 758 759 759 760 762 762 763 764 764 765 765 765 766 766 766 766 766 766 766 765 766 766 767 767 766 767 767 767 767 767 768 769 769 770 770 770 770 771 771 772 772 772 771 771
796 793 791 790 787 785 783 779 776 772 769 766 762 760 757 753 751 747 744 742 739 738 738 737 736 735 735 736 736 737 738 740 742 744 746 748 749 752 753 754 754 755 755 756 756 757 758 759 760 760 761 762 762 763 763 763 763 763 763 763 762 763 763 763 764 763 764 764 764 764 764 765 766 767 767 767 767 767 768 769 769 769 770 770 770
793 791 790 788 786 785 782 779 776 771 767 765 761 759 756 752 749 746 742 739 736 735 734 733 732 731 731 731 731 731 732 734 736 739 741 743 745 748 749 750 751 751 751 752 752 753 754 755 755 756 758 758 759 759 759 759 760 760 760 760 759 759 759 760 760 760 761 761 761 761 761 762 763 764 764 764 764 765 765 766 766 767 768 768 769
792 790 788 787 784 783 781 778 775 771 767 764 761 758 754 750 747 744 741 737 734 732 730 729 728 728 727 726 726 727 727 728 731 733 736 739 741 744 745 746 747 747 748 748 749 749 750 750 751 752 754 755 755 756 756 756 756 757 757 757 757 756 756 756 757 757 757 758 758 758 758 759 760 761 761 761 761 761 762 763 763 764 765 766 767
792 791 788 786 783 780 779 776 773 770 767 764 761 757 753 749 745 741 738 735 731 729 726 725 725 724 723 722 721 722 722 724 726 729 732 735 737 739 740 742 743 743 744 744 745 745 746 747 748 749 750 751 752 752 752 752 753 753 754 754 754 754 753 753 754 754 754 754 754 754 755 756 757 757 757 757 758 758 759 760 760 761 763 764 765
792 790 788 786 783 779 777 774 771 768 764 761 759 756 753 749 744 740 737 732 729 726 723 721 721 720 719 718 718 718 719 721 723 725 728 730 733 735 736 737 739 739 740 740 741 742 743 743 744 745 746 748 748 749 749 749 749 750 750 751 751 751 751 751 751 751 751 751 751 751 752 752 753 753 754 754 755 755 756 756 757 758 760 761 762
790 788 786 784 781 778 775 771 768 765 762 759 755 753 750 746 742 738 734 730 727 723 720 718 716 715 714 715 716 716 717 718 720 722 724 726 729 731 732 733 734 735 736 737 738 739 739 740 741 742 743 744 744 745 745 745 746 746 747 747 748 747 748 748 748 748 748 748 748 748 748 749 749 750 750 751 751 752 753 753 754 755 757 758 759
789 786 784 782 779 777 773 770 767 763 760 758 754 751 747 743 739 735 731 727 724 720 717 715 712 710 710 711 713 714 715 715 716 718 720 723 725 727 729 729 730 731 732 734 734 735 736 737 738 738 739 740 740 740 741 742 742 743 743 744 744 744 745 745 745 745 745 745 745 745 745 746 746 746 747 747 748 749 749 749 750 752 753 754 756
787 784 782 779 776 774 770 768 766 762 760 757 754 750 745 741 737 732 728 725 722 718 715 712 709 707 708 709 710 711 712 712 712 714 716 719 721 723 725 726 726 728 729 731 731 732 733 734 734 735 735 736 736 736 737 738 739 740 741 741 741 742 742 742 742 742 742 742 742 742 742 742 743 743 743 744 745 745 746 747 748 748 749 751 752
785 782 779 777 774 771 769 767 764 761 759 756 752 748 743 738 734 730 727 723 719 716 712 709 707 706 706 706 706 707 708 708 709 711 713 716 718 720 721 722 723 724 725 727 728 729 730 730 731 731 732 732 732 732 733 734 736 737 738 738 738 739 739 739 739 739 739 739 739 738 738 738 739 740 740 740 741 742 743 744 745 745 746 747 747
785 781 778 775 772 770 767 764 762 759 756 753 750 746 741 736 732 727 724 720 716 714 710 707 705 704 703 703 702 703 704 705 706 708 710 713 715 716 717 718 719 720 722 723 724 725 726 727 728 728 728 728 727 728 730 731 732 733 735 736 736 736 736 736 736 736 736 736 735 735 735 735 735 736 736 737 737 738 740 741 742 743 743 743 743
782 779 777 773 770 767 764 761 759 756 753 750 746 742 738 733 729 725 721 717 714 711 708 705 702 701 700 700 700 701 701 702 704 706 708 710 711 713 714 715 716 717 718 720 721 722 723 723 724 725 725 724 724 724 726 727 728 729 731 732 733 733 733 733 733 733 733 732 732 732 732 732 732 733 733 734 734 735 736 737 738 740 740 740 740
780 777 773 770 767 763 759 757 754 752 749 746 742 738 734 729 725 722 717 714 711 708 705 702 699 698 698 698 699 699 699 700 702 703 705 707 708 710 711 712 713 713 714 716 717 719 720 720 721 722 721 721 720 721 722 723 724 726 727 728 729 729 730 730 730 730 729 729 729 729 729 729 730 730 730 731 731 732 733 734 734 735 736 737 737
778 774 769 766 763 759 756 753 750 748 746 742 739 735 730 725 721 717 713 710 708 705 702 699 697 696 695 695 696 696 697 698 700 701 703 704 705 707 708 709 711 711 711 713 714 715 717 717 718 719 718 717 716 717 719 719 721 722 723 725 725 726 726 726 726 726 726 725 726 726 726 726 727 727 728 728 729 730 730 731 731 732 733 733 733
775 771 766 762 758 755 752 748 744 743 742 739 736 731 726 721 716 712 709 706 704 702 699 696 694 693 693 693 693 694 695 696 697 698 699 700 702 704 705 706 708 708 709 709 710 712 713 714 715 715 715 714 713 713 715 716 717 719 720 721 721 722 722 722 722 722 722 722 722 723 723 723 724 725 725 726 727 727 727 728 728 729 730 729 729
772 767 763 758 754 751 748 744 741 739 738 735 731 726 721 716 711 707 705 703 701 699 696 693 691 690 689 689 690 691 692 693 694 694 695 697 699 701 703 703 704 705 706 706 707 709 709 710 711 711 712 712 710 710 711 712 713 715 716 717 718 718 718 719 719 719 719 719 720 720 721 721 721 722 723 723 724 725 725 725 725 726 727 726 725
769 765 760 755 751 747 743 741 740 737 734 730 726 721 716 710 705 702 701 700 697 695 692 690 687 686 685 685 686 687 689 689 690 691 693 695 697 699 700 701 701 703 704 704 705 706 706 707 707 708 709 709 708 707 708 709 711 712 713 714 714 715 715 715 716 716 716 717 717 718 718 719 719 720 720 721 721 722 722 721 721 722 722 721 721
767 763 758 754 750 746 742 741 738 734 730 726 721 716 710 704 700 698 698 696 693 691 689 686 683 682 681 681 682 683 684 685 687 688 690 692 694 696 698 699 699 700 701 702 703 703 703 704 704 705 706 706 706 705 705 706 708 708 709 711 711 711 712 712 713 714 714 715 715 715 716 716 717 717 718 718 718 718 718 718 718 718 718 717 718
765 761 757 753 750 747 743 740 736 731 727 723 718 713 706 699 696 695 694 692 690 688 686 683 680 679 677 677 677 678 679 681 683 686 688 690 692 694 695 696 697 697 699 700 701 701 701 701 702 702 703 703 703 702 702 703 704 705 706 708 708 709 709 710 711 711 712 712 713 713 713 714 714 714 714 715 715 714 715 715 714 714 714 715 716
763 760 757 754 750 746 742 737 733 729 724 720 716 710 702 696 694 693 691 689 688 686 683 680 677 675 674 673 673 674 676 678 680 683 685 687 690 691 693 694 694 695 697 698 699 699 699 699 699 700 700 700 700 700 700 700 701 702 703 705 705 706 706 707 708 708 709 709 710 710 711 711 710 710 710 711 711 711 711 711 711 712 712 712 712
763 760 757 753 748 743 738 734 730 726 722 718 713 706 699 695 693 691 689 688 686 683 680 677 674 672 671 670 670 671 673 675 677 680 682 684 687 689 690 691 692 693 694 695 696 697 697 697 697 697 697 698 698 698 698 698 698 700 701 702 703 703 704 705 705 706 706 707 707 707 707 708 708 707 707 708 708 708 708 708 708 709 708 708 708
765 761 757 753 748 742 737 732 728 725 721 717 712 704 698 694 692 691 689 686 684 681 678 674 672 669 668 668 668 669 670 672 674 677 679 682 684 686 688 689 689 691 692 693 694 695 695 695 695 695 695 696 696 696 696 696 697 698 699 700 700 701 702 702 703 703 704 704 704 704 704 705 705 705 705 705 705 705 705 704 705 705 704 704 704
766 761 757 753 747 741 736 730 726 724 720 716 711 704 698 695 693 691 688 685 682 679 676 672 669 667 666 666 666 667 668 670 672 674 677 679 681 683 685 686 687 688 689 691 692 692 693 693 693 693 694 694 694 694 694 695 696 697 698 698 699 699 700 700 701 701 701 701 702 702 702 702 702 702 701 701 701 701 701 701 702 702 701 701 701
764 760 756 751 745 740 735 729 725 722 718 713 709 704 700 697 693 690 687 684 681 677 674 670 667 665 664 664 665 666 667 669 671 672 674 677 678 681 682 683 685 686 687 688 689 690 691 691 691 692 692 692 693 693 693 694 695 695 696 696 697 698 698 698 699 699 699 699 699 699 699 699 698 699 699 698 699 699 699 699 699 699 699 699 699
765 761 757 752 746 740 735 730 725 720 716 712 707 705 702 698 693 689 686 683 680 676 672 668 665 663 663 662 663 664 666 667 669 671 673 675 677 678 679 680 682 683 685 686 687 687 688 689 690 690 691 691 692 692 692 693 693 693 694 694 695 695 696 696 696 696 697 697 697 697 696 696 696 696 696 696 696 696 696 696 696 696 696 696 696
766 762 758 753 747 742 738 733 726 720 715 711 708 705 701 696 692 689 686 683 679 675 671 667 664 662 661 660 661 662 663 665 667 668 670 672 674 675 676 677 678 679 681 683 684 685 686 687 688 689 690 690 691 691 691 691 691 691 692 692 692 693 693 693 693 694 694 695 695 695 695 694 695 694 694 694 694 693 693 693 693 693 693 693 693
767 762 758 754 750 745 740 734 727 720 715 711 708 704 700 696 693 690 687 683 678 674 670 665 662 660 659 658 659 660 662 663 665 666 668 670 671 672 673 674 676 677 679 680 681 682 683 685 686 688 688 689 690 690 690 690 690 690 690 690 690 690 690 690 690 691 692 692 693 693 693 692 693 693 692 692 692 692 691 691 691 691 691 691 691
767 761 757 755 751 746 740 732 726 720 716 712 708 704 700 698 695 691 687 683 678 673 668 663 659 658 657 657 657 658 660 661 663 665 667 668 670 671 672 672 674 676 678 679 680 681 681 683 685 686 687 688 688 688 689 689 689 689 688 688 688 689 688 688 688 689 690 691 691 691 691 691 691 691 691 691 690 690 690 690 689 689 689 689 690
767 762 757 754 750 744 737 730 724 720 717 713 710 707 703 699 695 691 687 683 678 672 666 661 658 655 654 654 655 656 657 659 661 663 665 667 669 670 671 672 673 675 676 678 679 680 681 682 683 683 684 686 687 687 688 688 688 687 687 687 688 688 688 687 687 688 689 689 689 689 689 690 690 690 690 690 690 690 689 688 688 688 688 688 688